User: anonymous   Login
Location: Vancouver
(49.2500°N, 123.1330°W)
Time: 18:51:34
(UTC-07:00)
Language:

Cosmos 2333 Rocket - Orbit

View from above orbital plane
View from above orbital plane
View from above satellite
View from above satellite

Ground track
Ground track

The orbit data is extracted from the following two-line orbital elements,

1 24298U 96051B   17172.82588024 -.00000041 +00000-0 +42146-5 0  9999
2 24298 070.8515 052.3287 0017271 185.0252 175.0697 14.12498750072219
Epoch (UTC): 21 June 2017 19:49:16
Eccentricity: 0.0017271
inclination: 70.8515°
perigee height: 838 km
apogee height: 863 km
right ascension of ascending node: 52.3287°
argument of perigee: 185.0252°
revolutions per day: 14.12498750
mean anomaly at epoch: 175.0697°
orbit number at epoch: 7221

The dashed part of the orbit path shows where the satellite is in the earth's shadow,  

DLR